Hourly Data Report for October 10, 2017

All times are specified in Local Standard Time (LST). Add 1 hour to adjust for Daylight Saving Time where and when it is observed.

KITCHENER/WATERLOO
ONTARIO

43°27'39.000" N
80°22'43.000" W
321.60 m
6144239
71368
YKF

Download Data

Hourly Data (October 2017)
Hourly Data Report for October 10, 2017
Temp Definition
°C
Dew Point Temp Definition
°C
Rel Hum Definition
%
Wind Dir Definition
10's deg

Wind Spd Definition
km/h
Visibility Definition
km
Stn Press Definition
kPa
Hmdx Definition


Wind Chill Definition


Weather Definition


TIME
00:00 Legend Double Dagger 10.4 10.3 99   0 0.4 97.95     Fog
01:00 Legend Double Dagger 9.0 9.0 100 33 4 0.4 97.98     Fog
02:00 Legend Double Dagger 9.0 9.0 100   0 0.8 98.01     Fog
03:00 Legend Double Dagger 10.0 10.0 100 35 4 0.8 98.01     Fog
04:00 Legend Double Dagger 8.4 8.4 100 LegendMM 4 0.4 98.04     Fog
05:00 Legend Double Dagger 8.5 8.5 100   0 1.2 98.07     Fog
06:00 Legend Double Dagger 7.9 7.9 100   0 2.0 98.13     Fog
07:00 Legend Double Dagger 7.7 7.7 100 LegendMM 4 4.0 98.16     Fog
08:00 Legend Double Dagger 12.2 12.2 100 30 5 9.7 98.20     Fog
09:00 Legend Double Dagger 14.4 14.3 99 30 11 16.1 98.29     LegendNANA
10:00 Legend Double Dagger 16.4 14.3 87 32 11 16.1 98.29     LegendNANA
11:00 Legend Double Dagger 18.9 13.3 70 32 13 16.1 98.28     LegendNANA
12:00 Legend Double Dagger 19.7 13.3 66 31 15 16.1 98.30     LegendNANA
13:00 Legend Double Dagger 20.8 12.8 60 32 9 16.1 98.29     LegendNANA
14:00 Legend Double Dagger 21.5 12.2 55 29 17 16.1 98.30     LegendNANA
15:00 Legend Double Dagger 21.1 12.1 56 30 15 16.1 98.31     LegendNANA
16:00 Legend Double Dagger 19.1 12.7 66 33 13 16.1 98.27     LegendNANA
17:00 Legend Double Dagger 17.7 10.2 61 31 11 16.1 98.31     LegendNANA
18:00 Legend Double Dagger 16.0 9.1 63 33 13 16.1 98.34     LegendNANA
19:00 Legend Double Dagger 14.9 8.0 63 33 15 16.1 98.40     LegendNANA
20:00 Legend Double Dagger 13.3 8.2 71 32 5 16.1 98.45     LegendNANA
21:00 Legend Double Dagger 12.1 7.8 75 35 8 16.1 98.44     LegendNANA
22:00 Legend Double Dagger 10.3 7.8 84 32 8 16.1 98.45     LegendNANA
23:00 Legend Double Dagger 10.0 8.0 87 33 9 16.1 98.44     LegendNANA

Notes on Data Quality.

Legend

  • E = Estimated
  • M = Missing
  • NA = Not Available
  • ‡ = Partner data that is not subject to review by the National Climate Archives
Date modified: